Time,TemperatureF,DewpointF,PressureIn,WindDirection,WindDirectionDegrees,WindSpeedMPH,WindSpeedGustMPH,Humidity,HourlyPrecipIn,Conditions,Clouds,dailyrainin,SolarRadiationWatts/m^2,SoftwareType,DateUTC
2013-06-15 00:05:00,65.3,46.2,29.66,SE,126,3.0,-999.0,47,-99.99,,,0.00,0.0,cwc,2013-06-15 06:05:00,
2013-06-15 00:10:00,65.0,45.9,29.66,SE,126,2.0,-999.0,47,-99.99,,,0.00,0.0,cwc,2013-06-15 06:10:00,
2013-06-15 00:15:00,64.5,45.4,29.66,SE,128,4.0,-999.0,47,-99.99,,,0.00,0.0,cwc,2013-06-15 06:15:00,
2013-06-15 00:20:00,64.1,45.4,29.66,SE,128,1.0,-999.0,48,-99.99,,,0.00,0.0,cwc,2013-06-15 06:20:00,
2013-06-15 00:25:00,63.9,45.5,29.66,SE,128,0.0,-999.0,49,-99.99,,,0.00,0.0,cwc,2013-06-15 06:25:00,
2013-06-15 00:30:00,63.6,45.2,29.67,SE,128,0.0,-999.0,49,-99.99,,,0.00,0.0,cwc,2013-06-15 06:30:00,
2013-06-15 00:35:00,63.2,45.2,29.67,SE,128,0.0,-999.0,50,-99.99,,,0.00,0.0,cwc,2013-06-15 06:35:00,
2013-06-15 00:40:00,62.5,44.1,29.66,SE,128,4.0,-999.0,49,-99.99,,,0.00,0.0,cwc,2013-06-15 06:40:00,
2013-06-15 00:45:00,61.6,44.0,29.66,SE,129,2.0,-999.0,51,-99.99,,,0.00,0.0,cwc,2013-06-15 06:45:00,
2013-06-15 00:50:00,61.2,43.6,29.66,SE,129,1.0,-999.0,51,-99.99,,,0.00,0.0,cwc,2013-06-15 06:50:00,
2013-06-15 00:55:00,60.9,43.6,29.67,SE,129,0.0,-999.0,52,-99.99,,,0.00,0.0,cwc,2013-06-15 06:55:00,
2013-06-15 01:00:00,60.4,43.1,29.66,SE,129,2.0,-999.0,52,-99.99,,,0.00,0.0,cwc,2013-06-15 07:00:00,
2013-06-15 01:05:00,60.0,43.1,29.66,SE,129,1.0,-999.0,53,-99.99,,,0.00,0.0,cwc,2013-06-15 07:05:00,
2013-06-15 01:10:00,59.9,42.6,29.67,SE,129,1.0,-999.0,52,-99.99,,,0.00,0.0,cwc,2013-06-15 07:10:00,
2013-06-15 01:15:00,59.5,42.6,29.67,SE,129,0.0,-999.0,53,-99.99,,,0.00,0.0,cwc,2013-06-15 07:15:00,
2013-06-15 01:20:00,59.0,42.1,29.67,SE,129,2.0,-999.0,53,-99.99,,,0.00,0.0,cwc,2013-06-15 07:20:00,
2013-06-15 01:25:00,58.5,41.9,29.67,SE,129,2.0,-999.0,54,-99.99,,,0.00,0.0,cwc,2013-06-15 07:25:00,
2013-06-15 01:30:00,58.3,42.1,29.67,SE,129,0.0,-999.0,55,-99.99,,,0.00,0.0,cwc,2013-06-15 07:30:00,
2013-06-15 01:35:00,58.1,41.9,29.67,SE,129,0.0,-999.0,55,-99.99,,,0.00,0.0,cwc,2013-06-15 07:35:00,
2013-06-15 01:40:00,57.9,41.7,29.67,SE,129,0.0,-999.0,55,-99.99,,,0.00,0.0,cwc,2013-06-15 07:40:00,
2013-06-15 01:45:00,57.6,41.4,29.67,SE,129,0.0,-999.0,55,-99.99,,,0.00,0.0,cwc,2013-06-15 07:45:00,
2013-06-15 01:50:00,57.3,41.1,29.68,SE,129,0.0,-999.0,55,-99.99,,,0.00,0.0,cwc,2013-06-15 07:50:00,
2013-06-15 01:55:00,57.1,41.3,29.68,SE,129,0.0,-999.0,56,-99.99,,,0.00,0.0,cwc,2013-06-15 07:55:00,
2013-06-15 02:00:00,57.1,41.6,29.68,SE,129,2.0,-999.0,57,-99.99,,,0.00,0.0,cwc,2013-06-15 08:00:00,
2013-06-15 02:05:00,57.1,40.9,29.68,SE,129,0.0,-999.0,55,-99.99,,,0.00,0.0,cwc,2013-06-15 08:05:00,
2013-06-15 02:10:00,56.7,40.9,29.68,SE,129,3.0,-999.0,56,-99.99,,,0.00,0.0,cwc,2013-06-15 08:10:00,
2013-06-15 02:15:00,56.1,41.0,29.68,SE,129,2.0,-999.0,58,-99.99,,,0.00,0.0,cwc,2013-06-15 08:15:00,
2013-06-15 02:20:00,56.0,40.2,29.68,SE,129,1.0,-999.0,56,-99.99,,,0.00,0.0,cwc,2013-06-15 08:20:00,
2013-06-15 02:25:00,55.6,40.1,29.68,SE,129,4.0,-999.0,57,-99.99,,,0.00,0.0,cwc,2013-06-15 08:25:00,
2013-06-15 02:30:00,55.2,40.4,29.68,SE,130,4.0,-999.0,59,-99.99,,,0.00,0.0,cwc,2013-06-15 08:30:00,
2013-06-15 02:35:00,55.1,40.3,29.68,SE,130,2.0,-999.0,59,-99.99,,,0.00,0.0,cwc,2013-06-15 08:35:00,
2013-06-15 02:40:00,54.9,40.1,29.68,SE,129,4.0,-999.0,59,-99.99,,,0.00,0.0,cwc,2013-06-15 08:40:00,
2013-06-15 02:45:00,54.6,40.2,29.68,SE,130,1.0,-999.0,60,-99.99,,,0.00,0.0,cwc,2013-06-15 08:45:00,
2013-06-15 02:50:00,54.5,39.7,29.68,SE,130,0.0,-999.0,59,-99.99,,,0.00,0.0,cwc,2013-06-15 08:50:00,
2013-06-15 02:55:00,54.3,39.9,29.68,SE,129,0.0,-999.0,60,-99.99,,,0.00,0.0,cwc,2013-06-15 08:55:00,
2013-06-15 03:00:00,54.2,39.8,29.69,SE,129,0.0,-999.0,60,-99.99,,,0.00,0.0,cwc,2013-06-15 09:00:00,
2013-06-15 03:05:00,54.2,39.8,29.69,SE,130,3.0,-999.0,60,-99.99,,,0.00,0.0,cwc,2013-06-15 09:05:00,
2013-06-15 03:10:00,54.2,39.4,29.69,SE,130,3.0,-999.0,59,-99.99,,,0.00,0.0,cwc,2013-06-15 09:10:00,
2013-06-15 03:15:00,53.7,39.7,29.70,SE,130,1.0,-999.0,61,-99.99,,,0.00,0.0,cwc,2013-06-15 09:15:00,
2013-06-15 03:20:00,53.6,39.6,29.69,SE,130,2.0,-999.0,61,-99.99,,,0.00,0.0,cwc,2013-06-15 09:20:00,
2013-06-15 03:25:00,53.6,39.6,29.69,SE,130,2.0,-999.0,61,-99.99,,,0.00,0.0,cwc,2013-06-15 09:25:00,
2013-06-15 03:30:00,53.7,39.7,29.69,SE,130,0.0,-999.0,61,-99.99,,,0.00,0.0,cwc,2013-06-15 09:30:00,
2013-06-15 03:35:00,53.6,39.2,29.69,SE,130,0.0,-999.0,60,-99.99,,,0.00,0.0,cwc,2013-06-15 09:35:00,
2013-06-15 03:40:00,53.4,39.0,29.69,SE,130,0.0,-999.0,60,-99.99,,,0.00,0.0,cwc,2013-06-15 09:40:00,
2013-06-15 03:45:00,53.0,39.0,29.69,SE,130,3.0,-999.0,61,-99.99,,,0.00,0.0,cwc,2013-06-15 09:45:00,
2013-06-15 03:50:00,52.5,38.8,29.70,SE,130,0.0,-999.0,62,-99.99,,,0.00,0.0,cwc,2013-06-15 09:50:00,
2013-06-15 03:55:00,52.2,38.9,29.70,SE,130,2.0,-999.0,63,-99.99,,,0.00,0.0,cwc,2013-06-15 09:55:00,
2013-06-15 04:00:00,52.2,38.5,29.70,SE,130,3.0,-999.0,62,-99.99,,,0.00,0.0,cwc,2013-06-15 10:00:00,
2013-06-15 04:05:00,52.3,38.6,29.70,SE,130,0.0,-999.0,62,-99.99,,,0.00,0.0,cwc,2013-06-15 10:05:00,
2013-06-15 04:10:00,52.3,38.6,29.70,SE,130,2.0,-999.0,62,-99.99,,,0.00,0.0,cwc,2013-06-15 10:10:00,
2013-06-15 04:15:00,52.2,38.5,29.71,SE,130,0.0,-999.0,62,-99.99,,,0.00,0.0,cwc,2013-06-15 10:15:00,
2013-06-15 04:20:00,52.2,38.5,29.71,SE,130,0.0,-999.0,62,-99.99,,,0.00,0.0,cwc,2013-06-15 10:20:00,
2013-06-15 04:25:00,52.2,38.5,29.71,SE,130,1.0,-999.0,62,-99.99,,,0.00,0.0,cwc,2013-06-15 10:25:00,
2013-06-15 04:30:00,51.9,38.6,29.71,SE,130,0.0,-999.0,63,-99.99,,,0.00,0.0,cwc,2013-06-15 10:30:00,
2013-06-15 04:35:00,51.5,38.2,29.72,SE,130,1.0,-999.0,63,-99.99,,,0.00,0.0,cwc,2013-06-15 10:35:00,
2013-06-15 04:40:00,51.2,38.2,29.72,SE,130,1.0,-999.0,64,-99.99,,,0.00,0.0,cwc,2013-06-15 10:40:00,
2013-06-15 04:45:00,50.9,37.9,29.72,SE,130,0.0,-999.0,64,-99.99,,,0.00,0.0,cwc,2013-06-15 10:45:00,
2013-06-15 04:55:00,50.7,38.1,29.73,SE,130,0.0,-999.0,65,-99.99,,,0.00,0.0,cwc,2013-06-15 10:55:00,
2013-06-15 05:00:00,50.5,37.9,29.73,SE,130,0.0,-999.0,65,-99.99,,,0.00,0.0,cwc,2013-06-15 11:00:00,
2013-06-15 05:05:00,50.2,37.6,29.73,SE,130,0.0,-999.0,65,-99.99,,,0.00,0.0,cwc,2013-06-15 11:05:00,
2013-06-15 05:10:00,49.8,37.6,29.73,SE,130,0.0,-999.0,66,-99.99,,,0.00,0.0,cwc,2013-06-15 11:10:00,
2013-06-15 05:15:00,49.6,37.4,29.73,SE,130,3.0,-999.0,66,-99.99,,,0.00,0.0,cwc,2013-06-15 11:15:00,
2013-06-15 05:20:00,49.4,37.5,29.73,SE,130,0.0,-999.0,67,-99.99,,,0.00,0.0,cwc,2013-06-15 11:20:00,
2013-06-15 05:25:00,49.2,37.3,29.74,SE,130,0.0,-999.0,67,-99.99,,,0.00,0.0,cwc,2013-06-15 11:25:00,
2013-06-15 05:30:00,49.1,37.2,29.74,SE,130,0.0,-999.0,67,-99.99,,,0.00,0.0,cwc,2013-06-15 11:30:00,
2013-06-15 05:35:00,48.8,36.9,29.74,SE,130,2.0,-999.0,67,-99.99,,,0.00,0.0,cwc,2013-06-15 11:35:00,
2013-06-15 05:40:00,48.7,37.2,29.75,SE,130,0.0,-999.0,68,-99.99,,,0.00,0.0,cwc,2013-06-15 11:40:00,
2013-06-15 05:45:00,48.6,37.1,29.75,SE,129,0.0,-999.0,68,-99.99,,,0.00,0.0,cwc,2013-06-15 11:45:00,
2013-06-15 05:50:00,48.4,37.2,29.75,SE,129,0.0,-999.0,69,-99.99,,,0.00,5.0,cwc,2013-06-15 11:50:00,
2013-06-15 05:55:00,48.6,37.4,29.75,SE,130,1.0,-999.0,69,-99.99,,,0.00,9.0,cwc,2013-06-15 11:55:00,
2013-06-15 06:00:00,48.9,37.0,29.75,SE,130,0.0,-999.0,67,-99.99,,,0.00,11.0,cwc,2013-06-15 12:00:00,
2013-06-15 06:05:00,49.0,37.1,29.75,SE,130,0.0,-999.0,67,-99.99,,,0.00,14.0,cwc,2013-06-15 12:05:00,
2013-06-15 06:10:00,48.9,37.0,29.76,SE,130,2.0,-999.0,67,-99.99,,,0.00,18.0,cwc,2013-06-15 12:10:00,
2013-06-15 06:15:00,48.7,37.2,29.76,SE,130,0.0,-999.0,68,-99.99,,,0.00,28.0,cwc,2013-06-15 12:15:00,
2013-06-15 06:20:00,48.6,37.1,29.76,SE,129,0.0,-999.0,68,-99.99,,,0.00,39.0,cwc,2013-06-15 12:20:00,
2013-06-15 06:25:00,48.6,37.1,29.76,SE,129,0.0,-999.0,68,-99.99,,,0.00,51.0,cwc,2013-06-15 12:25:00,
2013-06-15 06:30:00,48.6,37.1,29.76,SE,130,0.0,-999.0,68,-99.99,,,0.00,65.0,cwc,2013-06-15 12:30:00,
2013-06-15 06:35:00,48.9,37.4,29.77,SE,130,0.0,-999.0,68,-99.99,,,0.00,79.0,cwc,2013-06-15 12:35:00,
2013-06-15 06:40:00,49.3,37.4,29.77,SE,130,0.0,-999.0,67,-99.99,,,0.00,95.0,cwc,2013-06-15 12:40:00,
2013-06-15 06:45:00,49.8,37.9,29.77,SE,129,0.0,-999.0,67,-99.99,,,0.00,105.0,cwc,2013-06-15 12:45:00,
2013-06-15 06:50:00,50.3,38.1,29.77,SE,130,0.0,-999.0,66,-99.99,,,0.00,125.0,cwc,2013-06-15 12:50:00,
2013-06-15 06:55:00,50.9,39.4,29.77,SE,130,0.0,-999.0,68,-99.99,,,0.00,146.0,cwc,2013-06-15 12:55:00,
2013-06-15 07:00:00,51.6,39.7,29.77,SE,130,0.0,-999.0,67,-99.99,,,0.00,162.0,cwc,2013-06-15 13:00:00,
2013-06-15 07:05:00,52.3,40.1,29.77,SE,130,0.0,-999.0,66,-99.99,,,0.00,183.0,cwc,2013-06-15 13:05:00,
2013-06-15 07:10:00,53.0,40.4,29.77,SE,130,0.0,-999.0,65,-99.99,,,0.00,199.0,cwc,2013-06-15 13:10:00,
2013-06-15 07:15:00,53.5,40.5,29.78,SE,130,3.0,-999.0,64,-99.99,,,0.00,220.0,cwc,2013-06-15 13:15:00,
2013-06-15 07:20:00,54.2,40.5,29.78,SE,129,2.0,-999.0,62,-99.99,,,0.00,236.0,cwc,2013-06-15 13:20:00,
2013-06-15 07:25:00,54.8,40.8,29.78,SE,130,2.0,-999.0,61,-99.99,,,0.00,248.0,cwc,2013-06-15 13:25:00,
2013-06-15 07:30:00,55.5,41.1,29.78,SE,130,0.0,-999.0,60,-99.99,,,0.00,267.0,cwc,2013-06-15 13:30:00,
2013-06-15 07:35:00,56.4,41.3,29.78,SE,130,0.0,-999.0,58,-99.99,,,0.00,287.0,cwc,2013-06-15 13:35:00,
2013-06-15 07:40:00,57.3,41.5,29.78,SE,130,0.0,-999.0,56,-99.99,,,0.00,304.0,cwc,2013-06-15 13:40:00,
2013-06-15 07:45:00,58.6,42.4,29.78,SE,130,0.0,-999.0,55,-99.99,,,0.00,322.0,cwc,2013-06-15 13:45:00,
2013-06-15 07:50:00,59.6,42.7,29.78,SE,130,0.0,-999.0,53,-99.99,,,0.00,336.0,cwc,2013-06-15 13:50:00,
2013-06-15 07:55:00,60.9,43.3,29.78,SE,129,0.0,-999.0,51,-99.99,,,0.00,353.0,cwc,2013-06-15 13:55:00,
2013-06-15 08:00:00,62.0,43.6,29.77,SE,129,0.0,-999.0,49,-99.99,,,0.00,367.0,cwc,2013-06-15 14:00:00,
2013-06-15 08:05:00,63.0,44.3,29.77,SE,129,0.0,-999.0,48,-99.99,,,0.00,388.0,cwc,2013-06-15 14:05:00,
2013-06-15 08:10:00,63.8,44.7,29.77,SE,130,0.0,-999.0,47,-99.99,,,0.00,408.0,cwc,2013-06-15 14:10:00,
2013-06-15 08:15:00,64.6,45.2,29.77,SE,130,0.0,-999.0,46,-99.99,,,0.00,424.0,cwc,2013-06-15 14:15:00,
2013-06-15 08:20:00,65.2,45.4,29.77,SE,130,0.0,-999.0,45,-99.99,,,0.00,439.0,cwc,2013-06-15 14:20:00,
2013-06-15 08:25:00,65.9,46.1,29.77,SE,130,0.0,-999.0,45,-99.99,,,0.00,457.0,cwc,2013-06-15 14:25:00,
2013-06-15 08:30:00,66.7,46.5,29.77,SE,129,1.0,-999.0,44,-99.99,,,0.00,473.0,cwc,2013-06-15 14:30:00,
2013-06-15 08:35:00,67.2,46.7,29.77,SE,129,0.0,-999.0,43,-99.99,,,0.00,489.0,cwc,2013-06-15 14:35:00,
2013-06-15 08:40:00,67.6,46.7,29.77,SE,130,0.0,-999.0,42,-99.99,,,0.00,506.0,cwc,2013-06-15 14:40:00,
2013-06-15 08:45:00,67.9,47.0,29.77,SE,130,0.0,-999.0,42,-99.99,,,0.00,524.0,cwc,2013-06-15 14:45:00,
2013-06-15 08:55:00,68.9,47.7,29.76,SE,129,0.0,-999.0,41,-99.99,,,0.00,554.0,cwc,2013-06-15 14:55:00,
2013-06-15 09:00:00,69.6,48.4,29.76,SE,129,0.0,-999.0,41,-99.99,,,0.00,570.0,cwc,2013-06-15 15:00:00,
2013-06-15 09:05:00,70.1,48.1,29.76,SE,130,2.0,-999.0,39,-99.99,,,0.00,584.0,cwc,2013-06-15 15:05:00,
2013-06-15 09:10:00,70.7,48.7,29.76,SE,129,0.0,-999.0,39,-99.99,,,0.00,599.0,cwc,2013-06-15 15:10:00,
2013-06-15 09:15:00,71.3,49.3,29.76,SE,130,1.0,-999.0,39,-99.99,,,0.00,617.0,cwc,2013-06-15 15:15:00,
2013-06-15 09:20:00,71.8,49.8,29.75,SE,130,0.0,-999.0,39,-99.99,,,0.00,633.0,cwc,2013-06-15 15:20:00,
2013-06-15 09:25:00,72.5,50.2,29.75,SE,130,2.0,-999.0,38,-99.99,,,0.00,649.0,cwc,2013-06-15 15:25:00,
2013-06-15 09:30:00,73.1,50.4,29.75,SE,129,1.0,-999.0,37,-99.99,,,0.00,664.0,cwc,2013-06-15 15:30:00,
2013-06-15 09:35:00,73.9,51.2,29.75,SE,128,1.0,-999.0,37,-99.99,,,0.00,679.0,cwc,2013-06-15 15:35:00,
2013-06-15 09:40:00,74.8,51.4,29.74,East,98,3.0,-999.0,35,-99.99,,,0.00,694.0,cwc,2013-06-15 15:40:00,
2013-06-15 09:45:00,75.5,52.1,29.74,East,96,0.0,-999.0,35,-99.99,,,0.00,708.0,cwc,2013-06-15 15:45:00,
2013-06-15 09:50:00,76.2,52.8,29.74,East,96,2.0,-999.0,35,-99.99,,,0.00,719.0,cwc,2013-06-15 15:50:00,
2013-06-15 09:55:00,76.7,52.6,29.74,East,94,3.0,-999.0,33,-99.99,,,0.00,731.0,cwc,2013-06-15 15:55:00,
2013-06-15 10:00:00,76.8,53.0,29.73,East,84,3.0,-999.0,34,-99.99,,,0.00,745.0,cwc,2013-06-15 16:00:00,
2013-06-15 10:10:00,77.4,53.3,29.73,NNW,345,3.0,-999.0,33,-99.99,,,0.00,770.0,cwc,2013-06-15 16:10:00,
2013-06-15 10:15:00,77.8,53.3,29.73,NNW,345,0.0,-999.0,32,-99.99,,,0.00,782.0,cwc,2013-06-15 16:15:00,
2013-06-15 10:20:00,78.7,54.2,29.73,SW,217,12.0,-999.0,32,-99.99,,,0.00,793.0,cwc,2013-06-15 16:20:00,
2013-06-15 10:25:00,78.7,53.9,29.73,SW,225,6.0,-999.0,31,-99.99,,,0.00,803.0,cwc,2013-06-15 16:25:00,
2013-06-15 10:30:00,79.0,54.2,29.73,SSW,198,9.0,-999.0,31,-99.99,,,0.00,821.0,cwc,2013-06-15 16:30:00,
2013-06-15 10:40:00,78.7,53.9,29.73,SW,214,11.0,-999.0,31,-99.99,,,0.00,840.0,cwc,2013-06-15 16:40:00,
2013-06-15 10:45:00,78.9,54.4,29.73,SW,215,6.0,-999.0,32,-99.99,,,0.00,851.0,cwc,2013-06-15 16:45:00,
2013-06-15 10:50:00,78.9,54.1,29.72,SW,221,8.0,-999.0,31,-99.99,,,0.00,863.0,cwc,2013-06-15 16:50:00,
2013-06-15 10:55:00,79.3,54.1,29.72,SW,229,3.0,-999.0,30,-99.99,,,0.00,875.0,cwc,2013-06-15 16:55:00,
2013-06-15 11:00:00,79.4,54.2,29.72,SSW,211,11.0,-999.0,30,-99.99,,,0.00,888.0,cwc,2013-06-15 17:00:00,
2013-06-15 11:05:00,79.6,54.8,29.72,SW,228,3.0,-999.0,31,-99.99,,,0.00,923.0,cwc,2013-06-15 17:05:00,
2013-06-15 11:10:00,80.4,54.8,29.73,SW,217,8.0,-999.0,29,-99.99,,,0.00,1049.0,cwc,2013-06-15 17:10:00,
2013-06-15 11:15:00,80.9,55.3,29.72,SSW,212,7.0,-999.0,29,-99.99,,,0.00,1095.0,cwc,2013-06-15 17:15:00,
2013-06-15 11:20:00,80.4,54.8,29.72,SSE,167,6.0,-999.0,29,-99.99,,,0.00,318.0,cwc,2013-06-15 17:20:00,
2013-06-15 11:25:00,80.7,54.1,29.72,West,259,8.0,-999.0,26,-99.99,,,0.00,1148.0,cwc,2013-06-15 17:25:00,
2013-06-15 11:30:00,80.8,54.9,29.72,South,174,5.0,-999.0,28,-99.99,,,0.00,276.0,cwc,2013-06-15 17:30:00,
2013-06-15 11:35:00,80.7,54.8,29.72,South,188,5.0,-999.0,28,-99.99,,,0.00,1063.0,cwc,2013-06-15 17:35:00,
2013-06-15 11:40:00,81.3,55.4,29.72,SSW,196,11.0,-999.0,28,-99.99,,,0.00,984.0,cwc,2013-06-15 17:40:00,
2013-06-15 11:45:00,81.5,55.2,29.72,SW,215,13.0,-999.0,27,-99.99,,,0.00,986.0,cwc,2013-06-15 17:45:00,
2013-06-15 11:50:00,81.6,55.0,29.72,SSW,206,11.0,-999.0,26,-99.99,,,0.00,1046.0,cwc,2013-06-15 17:50:00,
2013-06-15 11:55:00,81.8,55.2,29.71,SW,225,5.0,-999.0,26,-99.99,,,0.00,986.0,cwc,2013-06-15 17:55:00,
2013-06-15 12:00:00,82.3,55.3,29.71,SW,226,7.0,-999.0,25,-99.99,,,0.00,793.0,cwc,2013-06-15 18:00:00,
2013-06-15 12:05:00,82.9,55.2,29.71,SW,217,5.0,-999.0,23,-99.99,,,0.00,991.0,cwc,2013-06-15 18:05:00,
2013-06-15 12:10:00,83.6,55.9,29.71,SSW,204,2.0,-999.0,23,-99.99,,,0.00,1007.0,cwc,2013-06-15 18:10:00,
2013-06-15 12:15:00,83.9,55.5,29.71,SSE,163,5.0,-999.0,21,-99.99,,,0.00,1039.0,cwc,2013-06-15 18:15:00,
2013-06-15 12:25:00,84.9,56.1,29.71,SW,218,13.0,-999.0,20,-99.99,,,0.00,1071.0,cwc,2013-06-15 18:25:00,
2013-06-15 12:30:00,85.4,56.6,29.71,SW,236,3.0,-999.0,20,-99.99,,,0.00,1055.0,cwc,2013-06-15 18:30:00,
2013-06-15 12:40:00,86.0,56.8,29.70,SW,232,3.0,-999.0,19,-99.99,,,0.00,1018.0,cwc,2013-06-15 18:40:00,
2013-06-15 12:45:00,86.7,57.5,29.70,WNW,288,5.0,-999.0,19,-99.99,,,0.00,1011.0,cwc,2013-06-15 18:45:00,
2013-06-15 12:50:00,87.1,57.9,29.70,South,181,2.0,-999.0,19,-99.99,,,0.00,1009.0,cwc,2013-06-15 18:50:00,
2013-06-15 12:55:00,87.6,57.7,29.70,SSE,161,6.0,-999.0,17,-99.99,,,0.00,1011.0,cwc,2013-06-15 18:55:00,
2013-06-15 13:00:00,86.9,57.4,29.69,SSW,203,15.0,-999.0,18,-99.99,,,0.00,1009.0,cwc,2013-06-15 19:00:00,
2013-06-15 13:05:00,86.9,57.0,29.69,South,173,4.0,-999.0,17,-99.99,,,0.00,1009.0,cwc,2013-06-15 19:05:00,
2013-06-15 13:10:00,87.0,57.1,29.69,South,188,8.0,-999.0,17,-99.99,,,0.00,1013.0,cwc,2013-06-15 19:10:00,
2013-06-15 13:15:00,87.1,57.2,29.69,SSW,202,11.0,-999.0,17,-99.99,,,0.00,1013.0,cwc,2013-06-15 19:15:00,
2013-06-15 13:20:00,87.2,57.3,29.68,SSW,208,6.0,-999.0,17,-99.99,,,0.00,1025.0,cwc,2013-06-15 19:20:00,
2013-06-15 13:25:00,87.2,57.3,29.68,South,169,7.0,-999.0,17,-99.99,,,0.00,1014.0,cwc,2013-06-15 19:25:00,
2013-06-15 13:30:00,87.5,57.6,29.68,SSW,193,10.0,-999.0,17,-99.99,,,0.00,1013.0,cwc,2013-06-15 19:30:00,
2013-06-15 13:35:00,87.6,57.7,29.68,South,187,2.0,-999.0,17,-99.99,,,0.00,1014.0,cwc,2013-06-15 19:35:00,
2013-06-15 13:40:00,87.9,58.0,29.68,SSW,211,9.0,-999.0,17,-99.99,,,0.00,1004.0,cwc,2013-06-15 19:40:00,
2013-06-15 13:45:00,88.1,58.2,29.67,SSW,199,0.0,-999.0,17,-99.99,,,0.00,1009.0,cwc,2013-06-15 19:45:00,
2013-06-15 13:50:00,87.9,57.7,29.67,ESE,113,3.0,-999.0,16,-99.99,,,0.00,1074.0,cwc,2013-06-15 19:50:00,
2013-06-15 13:55:00,88.0,57.8,29.68,SSW,200,7.0,-999.0,16,-99.99,,,0.00,1039.0,cwc,2013-06-15 19:55:00,
2013-06-15 14:00:00,87.4,57.5,29.67,SE,127,3.0,-999.0,17,-99.99,,,0.00,462.0,cwc,2013-06-15 20:00:00,
2013-06-15 14:05:00,87.6,57.7,29.67,South,178,2.0,-999.0,17,-99.99,,,0.00,243.0,cwc,2013-06-15 20:05:00,
2013-06-15 14:10:00,87.8,57.9,29.66,South,176,6.0,-999.0,17,-99.99,,,0.00,1071.0,cwc,2013-06-15 20:10:00,
2013-06-15 14:15:00,88.2,58.0,29.66,SSW,206,3.0,-999.0,16,-99.99,,,0.00,1013.0,cwc,2013-06-15 20:15:00,
2013-06-15 14:20:00,88.8,58.6,29.66,SSE,167,0.0,-999.0,16,-99.99,,,0.00,1028.0,cwc,2013-06-15 20:20:00,
2013-06-15 14:25:00,89.3,58.7,29.66,WSW,238,10.0,-999.0,15,-99.99,,,0.00,1041.0,cwc,2013-06-15 20:25:00,
2013-06-15 14:30:00,88.8,58.2,29.65,ENE,69,0.0,-999.0,15,-99.99,,,0.00,1034.0,cwc,2013-06-15 20:30:00,
2013-06-15 14:35:00,89.1,58.9,29.65,SSE,167,7.0,-999.0,16,-99.99,,,0.00,990.0,cwc,2013-06-15 20:35:00,
2013-06-15 14:40:00,90.0,59.4,29.65,WSW,239,5.0,-999.0,15,-99.99,,,0.00,997.0,cwc,2013-06-15 20:40:00,
2013-06-15 14:45:00,89.9,58.9,29.65,SSW,200,4.0,-999.0,14,-99.99,,,0.00,993.0,cwc,2013-06-15 20:45:00,
2013-06-15 14:50:00,89.9,58.9,29.64,South,169,3.0,-999.0,14,-99.99,,,0.00,967.0,cwc,2013-06-15 20:50:00,
2013-06-15 14:55:00,90.4,59.8,29.64,SSE,153,2.0,-999.0,15,-99.99,,,0.00,976.0,cwc,2013-06-15 20:55:00,
2013-06-15 15:00:00,90.4,59.8,29.65,SSW,199,12.0,-999.0,15,-99.99,,,0.00,940.0,cwc,2013-06-15 21:00:00,
2013-06-15 15:05:00,89.9,59.7,29.64,SW,223,1.0,-999.0,16,-99.99,,,0.00,928.0,cwc,2013-06-15 21:05:00,
2013-06-15 15:10:00,90.2,58.9,29.64,NNW,346,6.0,-999.0,13,-99.99,,,0.00,933.0,cwc,2013-06-15 21:10:00,
2013-06-15 15:15:00,90.4,59.1,29.63,NNW,338,2.0,-999.0,13,-99.99,,,0.00,921.0,cwc,2013-06-15 21:15:00,
2013-06-15 15:20:00,90.6,59.3,29.63,ESE,102,4.0,-999.0,13,-99.99,,,0.00,933.0,cwc,2013-06-15 21:20:00,
2013-06-15 15:25:00,90.9,59.6,29.63,SSW,206,7.0,-999.0,13,-99.99,,,0.00,962.0,cwc,2013-06-15 21:25:00,
2013-06-15 15:30:00,91.1,60.1,29.62,SW,218,8.0,-999.0,14,-99.99,,,0.00,956.0,cwc,2013-06-15 21:30:00,
2013-06-15 15:35:00,90.8,59.8,29.62,WSW,254,0.0,-999.0,14,-99.99,,,0.00,967.0,cwc,2013-06-15 21:35:00,
2013-06-15 15:40:00,90.6,59.6,29.62,South,182,14.0,-999.0,14,-99.99,,,0.00,911.0,cwc,2013-06-15 21:40:00,
2013-06-15 15:45:00,90.1,58.8,29.62,SSW,198,6.0,-999.0,13,-99.99,,,0.00,893.0,cwc,2013-06-15 21:45:00,
2013-06-15 15:50:00,89.8,58.5,29.61,SW,216,2.0,-999.0,13,-99.99,,,0.00,844.0,cwc,2013-06-15 21:50:00,
2013-06-15 15:55:00,89.8,58.5,29.61,SW,215,0.0,-999.0,13,-99.99,,,0.00,835.0,cwc,2013-06-15 21:55:00,
2013-06-15 16:00:00,90.3,58.3,29.61,SW,214,9.0,-999.0,11,-99.99,,,0.00,847.0,cwc,2013-06-15 22:00:00,
2013-06-15 16:05:00,90.5,58.5,29.61,SSW,211,0.0,-999.0,11,-99.99,,,0.00,838.0,cwc,2013-06-15 22:05:00,
2013-06-15 16:10:00,91.3,59.3,29.61,SW,230,2.0,-999.0,11,-99.99,,,0.00,795.0,cwc,2013-06-15 22:10:00,
2013-06-15 16:15:00,91.7,59.7,29.60,SSW,192,5.0,-999.0,11,-99.99,,,0.00,765.0,cwc,2013-06-15 22:15:00,
2013-06-15 16:20:00,91.9,59.9,29.61,SW,229,4.0,-999.0,11,-99.99,,,0.00,782.0,cwc,2013-06-15 22:20:00,
2013-06-15 16:25:00,91.7,59.7,29.60,SW,222,9.0,-999.0,11,-99.99,,,0.00,763.0,cwc,2013-06-15 22:25:00,
2013-06-15 16:30:00,91.5,59.8,29.60,NNE,16,4.0,-999.0,12,-99.99,,,0.00,729.0,cwc,2013-06-15 22:30:00,
2013-06-15 16:35:00,91.8,59.8,29.60,WSW,252,5.0,-999.0,11,-99.99,,,0.00,715.0,cwc,2013-06-15 22:35:00,
2013-06-15 16:40:00,92.2,60.2,29.60,NNE,32,1.0,-999.0,11,-99.99,,,0.00,700.0,cwc,2013-06-15 22:40:00,
2013-06-15 16:45:00,92.1,60.1,29.59,West,264,4.0,-999.0,11,-99.99,,,0.00,686.0,cwc,2013-06-15 22:45:00,
2013-06-15 16:50:00,92.2,60.2,29.60,SW,219,6.0,-999.0,11,-99.99,,,0.00,652.0,cwc,2013-06-15 22:50:00,
2013-06-15 16:55:00,92.0,60.0,29.60,West,276,5.0,-999.0,11,-99.99,,,0.00,647.0,cwc,2013-06-15 22:55:00,
2013-06-15 17:00:00,91.7,59.7,29.60,South,190,9.0,-999.0,11,-99.99,,,0.00,638.0,cwc,2013-06-15 23:00:00,
2013-06-15 17:05:00,91.5,59.5,29.59,South,182,0.0,-999.0,11,-99.99,,,0.00,622.0,cwc,2013-06-15 23:05:00,
2013-06-15 17:10:00,91.8,59.8,29.59,South,191,3.0,-999.0,11,-99.99,,,0.00,512.0,cwc,2013-06-15 23:10:00,
2013-06-15 17:15:00,91.4,59.4,29.59,SW,215,13.0,-999.0,11,-99.99,,,0.00,580.0,cwc,2013-06-15 23:15:00,
2013-06-15 17:20:00,90.8,59.1,29.58,South,176,4.0,-999.0,12,-99.99,,,0.00,425.0,cwc,2013-06-15 23:20:00,
2013-06-15 17:25:00,90.4,58.7,29.58,SW,221,7.0,-999.0,12,-99.99,,,0.00,417.0,cwc,2013-06-15 23:25:00,
2013-06-15 17:30:00,90.5,58.8,29.58,SW,221,7.0,-999.0,12,-99.99,,,0.00,406.0,cwc,2013-06-15 23:30:00,
2013-06-15 17:35:00,90.3,58.6,29.58,SSW,207,0.0,-999.0,12,-99.99,,,0.00,475.0,cwc,2013-06-15 23:35:00,
2013-06-15 17:40:00,90.2,58.5,29.58,SW,225,4.0,-999.0,12,-99.99,,,0.00,471.0,cwc,2013-06-15 23:40:00,
2013-06-15 17:45:00,90.3,58.6,29.58,SW,220,3.0,-999.0,12,-99.99,,,0.00,448.0,cwc,2013-06-15 23:45:00,
2013-06-15 17:50:00,90.5,58.8,29.58,ENE,73,0.0,-999.0,12,-99.99,,,0.00,383.0,cwc,2013-06-15 23:50:00,
2013-06-15 17:55:00,90.4,58.7,29.58,SW,219,10.0,-999.0,12,-99.99,,,0.00,102.0,cwc,2013-06-15 23:55:00,
2013-06-15 18:00:00,89.4,57.7,29.58,SW,217,1.0,-999.0,12,-99.99,,,0.00,190.0,cwc,2013-06-16 00:00:00,
2013-06-15 18:10:00,89.0,57.7,29.58,SSW,209,4.0,-999.0,13,-99.99,,,0.00,362.0,cwc,2013-06-16 00:10:00,
2013-06-15 18:15:00,88.8,57.1,29.58,West,259,5.0,-999.0,12,-99.99,,,0.00,371.0,cwc,2013-06-16 00:15:00,
2013-06-15 18:20:00,88.7,57.0,29.57,South,190,1.0,-999.0,12,-99.99,,,0.00,360.0,cwc,2013-06-16 00:20:00,
2013-06-15 18:25:00,88.4,56.7,29.57,SSW,208,12.0,-999.0,12,-99.99,,,0.00,81.0,cwc,2013-06-16 00:25:00,
2013-06-15 18:30:00,88.0,56.7,29.57,SSW,202,12.0,-999.0,13,-99.99,,,0.00,47.0,cwc,2013-06-16 00:30:00,
2013-06-15 18:35:00,87.6,56.3,29.57,South,186,6.0,-999.0,13,-99.99,,,0.00,46.0,cwc,2013-06-16 00:35:00,
2013-06-15 18:40:00,87.4,55.7,29.58,SW,234,5.0,-999.0,12,-99.99,,,0.00,47.0,cwc,2013-06-16 00:40:00,
2013-06-15 18:45:00,87.3,55.6,29.58,SW,225,2.0,-999.0,12,-99.99,,,0.00,53.0,cwc,2013-06-16 00:45:00,
2013-06-15 18:50:00,87.2,55.5,29.58,SW,219,7.0,-999.0,12,-99.99,,,0.00,51.0,cwc,2013-06-16 00:50:00,
2013-06-15 18:55:00,87.1,55.8,29.58,SW,227,6.0,-999.0,13,-99.99,,,0.00,62.0,cwc,2013-06-16 00:55:00,
2013-06-15 19:00:00,87.0,55.7,29.58,SW,216,3.0,-999.0,13,-99.99,,,0.00,70.0,cwc,2013-06-16 01:00:00,
2013-06-15 19:05:00,86.8,55.5,29.58,WSW,250,4.0,-999.0,13,-99.99,,,0.00,67.0,cwc,2013-06-16 01:05:00,
2013-06-15 19:10:00,86.6,55.3,29.58,WSW,249,5.0,-999.0,13,-99.99,,,0.00,69.0,cwc,2013-06-16 01:10:00,
2013-06-15 19:15:00,86.6,55.3,29.59,SW,230,1.0,-999.0,13,-99.99,,,0.00,58.0,cwc,2013-06-16 01:15:00,
2013-06-15 19:20:00,86.5,55.2,29.59,SW,236,1.0,-999.0,13,-99.99,,,0.00,46.0,cwc,2013-06-16 01:20:00,
2013-06-15 19:25:00,86.4,55.1,29.59,SW,236,4.0,-999.0,13,-99.99,,,0.00,40.0,cwc,2013-06-16 01:25:00,
2013-06-15 19:30:00,86.3,55.0,29.60,SW,225,5.0,-999.0,13,-99.99,,,0.00,35.0,cwc,2013-06-16 01:30:00,
2013-06-15 19:35:00,86.3,55.0,29.61,South,186,5.0,-999.0,13,-99.99,,,0.00,25.0,cwc,2013-06-16 01:35:00,
2013-06-15 19:40:00,85.7,55.1,29.62,SSW,202,11.0,-999.0,15,-99.99,,,0.00,16.0,cwc,2013-06-16 01:40:00,
2013-06-15 19:45:00,84.8,54.6,29.62,SW,214,3.0,-999.0,16,-99.99,,,0.00,11.0,cwc,2013-06-16 01:45:00,
2013-06-15 19:50:00,84.5,54.3,29.64,SSW,212,3.0,-999.0,16,-99.99,,,0.00,7.0,cwc,2013-06-16 01:50:00,
2013-06-15 19:55:00,84.1,53.9,29.65,WSW,250,20.0,-999.0,16,-99.99,,,0.00,0.0,cwc,2013-06-16 01:55:00,
2013-06-15 20:00:00,83.4,53.5,29.65,SSE,160,6.0,-999.0,17,-99.99,,,0.00,0.0,cwc,2013-06-16 02:00:00,
2013-06-15 20:05:00,82.7,53.2,29.66,SSW,210,7.0,-999.0,18,-99.99,,,0.00,0.0,cwc,2013-06-16 02:05:00,
2013-06-15 20:10:00,82.1,52.6,29.66,SSW,202,5.0,-999.0,18,-99.99,,,0.00,0.0,cwc,2013-06-16 02:10:00,
2013-06-15 20:15:00,81.7,52.5,29.66,SE,140,2.0,-999.0,19,-99.99,,,0.00,0.0,cwc,2013-06-16 02:15:00,
2013-06-15 20:20:00,81.2,52.0,29.67,East,95,7.0,-999.0,19,-99.99,,,0.00,0.0,cwc,2013-06-16 02:20:00,
2013-06-15 20:25:00,80.6,51.8,29.68,ENE,68,7.0,-999.0,20,-99.99,,,0.00,0.0,cwc,2013-06-16 02:25:00,
2013-06-15 20:30:00,80.0,51.2,29.69,SSW,194,17.0,-999.0,20,-99.99,,,0.00,0.0,cwc,2013-06-16 02:30:00,
2013-06-15 20:35:00,79.4,51.0,29.69,South,183,6.0,-999.0,21,-99.99,,,0.00,0.0,cwc,2013-06-16 02:35:00,
2013-06-15 20:40:00,78.8,50.7,29.70,SSW,209,6.0,-999.0,22,-99.99,,,0.00,0.0,cwc,2013-06-16 02:40:00,
2013-06-15 20:45:00,78.4,50.3,29.70,SSW,200,4.0,-999.0,22,-99.99,,,0.00,0.0,cwc,2013-06-16 02:45:00,
2013-06-15 20:50:00,78.0,49.9,29.70,South,179,1.0,-999.0,22,-99.99,,,0.00,0.0,cwc,2013-06-16 02:50:00,
2013-06-15 20:55:00,77.7,50.0,29.70,SW,222,9.0,-999.0,23,-99.99,,,0.00,0.0,cwc,2013-06-16 02:55:00,
2013-06-15 21:00:00,77.4,49.7,29.70,SW,221,0.0,-999.0,23,-99.99,,,0.00,0.0,cwc,2013-06-16 03:00:00,
2013-06-15 21:05:00,77.2,49.5,29.70,SW,214,6.0,-999.0,23,-99.99,,,0.00,0.0,cwc,2013-06-16 03:05:00,
2013-06-15 21:10:00,76.9,49.2,29.71,East,89,7.0,-999.0,23,-99.99,,,0.00,0.0,cwc,2013-06-16 03:10:00,
2013-06-15 21:15:00,76.7,49.0,29.71,North,355,0.0,-999.0,23,-99.99,,,0.00,0.0,cwc,2013-06-16 03:15:00,
2013-06-15 21:20:00,76.5,49.1,29.71,WSW,248,3.0,-999.0,24,-99.99,,,0.00,0.0,cwc,2013-06-16 03:20:00,
2013-06-15 21:25:00,76.3,48.9,29.71,South,170,1.0,-999.0,24,-99.99,,,0.00,0.0,cwc,2013-06-16 03:25:00,
2013-06-15 21:30:00,76.1,48.7,29.72,WSW,252,8.0,-999.0,24,-99.99,,,0.00,0.0,cwc,2013-06-16 03:30:00,
2013-06-15 21:35:00,76.0,48.6,29.72,SSW,207,6.0,-999.0,24,-99.99,,,0.00,0.0,cwc,2013-06-16 03:35:00,
2013-06-15 21:40:00,75.8,48.4,29.73,SW,225,3.0,-999.0,24,-99.99,,,0.00,0.0,cwc,2013-06-16 03:40:00,
2013-06-15 21:45:00,75.7,48.7,29.73,SSW,200,3.0,-999.0,25,-99.99,,,0.00,0.0,cwc,2013-06-16 03:45:00,
2013-06-15 21:50:00,75.5,48.5,29.73,SSW,209,8.0,-999.0,25,-99.99,,,0.00,0.0,cwc,2013-06-16 03:50:00,
2013-06-15 21:55:00,75.3,48.3,29.73,SSW,211,8.0,-999.0,25,-99.99,,,0.00,0.0,cwc,2013-06-16 03:55:00,
2013-06-15 22:00:00,75.0,48.0,29.74,SW,225,6.0,-999.0,25,-99.99,,,0.00,0.0,cwc,2013-06-16 04:00:00,
2013-06-15 22:05:00,74.7,48.1,29.74,SW,225,1.0,-999.0,26,-99.99,,,0.00,0.0,cwc,2013-06-16 04:05:00,
2013-06-15 22:10:00,74.4,47.4,29.74,SW,223,0.0,-999.0,25,-99.99,,,0.00,0.0,cwc,2013-06-16 04:10:00,
2013-06-15 22:15:00,74.2,47.6,29.75,SW,223,5.0,-999.0,26,-99.99,,,0.00,0.0,cwc,2013-06-16 04:15:00,
2013-06-15 22:20:00,74.0,47.4,29.75,WSW,242,0.0,-999.0,26,-99.99,,,0.00,0.0,cwc,2013-06-16 04:20:00,
2013-06-15 22:25:00,73.8,47.2,29.76,WSW,242,0.0,-999.0,26,-99.99,,,0.00,0.0,cwc,2013-06-16 04:25:00,
2013-06-15 22:30:00,73.6,47.0,29.76,WSW,242,0.0,-999.0,26,-99.99,,,0.00,0.0,cwc,2013-06-16 04:30:00,
2013-06-15 22:35:00,73.4,46.8,29.77,WSW,241,0.0,-999.0,26,-99.99,,,0.00,0.0,cwc,2013-06-16 04:35:00,
2013-06-15 22:40:00,73.1,46.5,29.77,WSW,242,0.0,-999.0,26,-99.99,,,0.00,0.0,cwc,2013-06-16 04:40:00,
2013-06-15 22:45:00,73.0,46.7,29.78,WSW,241,0.0,-999.0,27,-99.99,,,0.00,0.0,cwc,2013-06-16 04:45:00,
2013-06-15 22:50:00,72.8,46.5,29.78,WSW,241,0.0,-999.0,27,-99.99,,,0.00,0.0,cwc,2013-06-16 04:50:00,
2013-06-15 22:55:00,72.6,46.3,29.77,WSW,242,0.0,-999.0,27,-99.99,,,0.00,0.0,cwc,2013-06-16 04:55:00,
2013-06-15 23:00:00,72.5,46.2,29.77,WSW,242,0.0,-999.0,27,-99.99,,,0.00,0.0,cwc,2013-06-16 05:00:00,
2013-06-15 23:05:00,72.4,46.1,29.78,WSW,242,0.0,-999.0,27,-99.99,,,0.00,0.0,cwc,2013-06-16 05:05:00,
2013-06-15 23:10:00,72.3,46.0,29.77,WSW,241,0.0,-999.0,27,-99.99,,,0.00,0.0,cwc,2013-06-16 05:10:00,
2013-06-15 23:15:00,72.2,45.9,29.77,WSW,242,0.0,-999.0,27,-99.99,,,0.00,0.0,cwc,2013-06-16 05:15:00,
2013-06-15 23:20:00,72.1,45.8,29.77,WSW,242,0.0,-999.0,27,-99.99,,,0.00,0.0,cwc,2013-06-16 05:20:00,
2013-06-15 23:25:00,71.7,45.4,29.76,WSW,241,3.0,-999.0,27,-99.99,,,0.00,0.0,cwc,2013-06-16 05:25:00,
2013-06-15 23:30:00,71.0,45.1,29.77,WSW,240,1.0,-999.0,28,-99.99,,,0.00,0.0,cwc,2013-06-16 05:30:00,
2013-06-15 23:35:00,70.7,44.8,29.77,WSW,240,1.0,-999.0,28,-99.99,,,0.00,0.0,cwc,2013-06-16 05:35:00,
2013-06-15 23:40:00,70.0,44.1,29.77,WSW,240,2.0,-999.0,28,-99.99,,,0.00,0.0,cwc,2013-06-16 05:40:00,
2013-06-15 23:45:00,69.7,44.1,29.77,WSW,240,3.0,-999.0,29,-99.99,,,0.00,0.0,cwc,2013-06-16 05:45:00,
2013-06-15 23:55:00,69.4,44.2,29.77,WNW,290,0.0,-999.0,30,-99.99,,,0.00,0.0,cwc,2013-06-16 05:55:00,